This is the latest recevied weather packets stored in our database for station/object CE3MXM-12. If no packets are shown the sender has not sent any weather packets the latest 1 day(s).
| Time | Temp. | Humidity | Pressure | Rain* | Wind** | Luminosity | Snow |
|---|---|---|---|---|---|---|---|
| 1778016312 | 13.33° C | 86% | 1013.4 hPa | - | 0.45 m/s, 319° | - | - |
| 1778016012 | 13.33° C | 85% | 1013.6 hPa | - | 0.89 m/s, 303° | - | - |
| 1778015711 | 13.89° C | 84% | 1013.4 hPa | - | 2.68 m/s, 264° | - | - |
| 1778015412 | 13.89° C | 83% | 1013.7 hPa | - | 0.89 m/s, 313° | - | - |
| 1778015111 | 13.89° C | 82% | 1013.6 hPa | - | 0.89 m/s, 131° | - | - |
| 1778014811 | 13.89° C | 82% | 1013.5 hPa | - | 0.45 m/s, 274° | - | - |
| 1778014511 | 13.89° C | 81% | 1013.6 hPa | - | 0.89 m/s, 125° | - | - |
| 1778014211 | 13.89° C | 81% | 1013.5 hPa | - | 0.89 m/s, 133° | - | - |
| 1778013911 | 14.44° C | 80% | 1013.6 hPa | - | 0.89 m/s, 321° | - | - |
| 1778013611 | 14.44° C | 80% | 1013.4 hPa | - | 2.24 m/s, 293° | - | - |
| 1778013314 | 14.44° C | 79% | 1013.4 hPa | - | 2.24 m/s, 315° | - | - |
| 1778013010 | 14.44° C | 78% | 1013.2 hPa | - | 2.68 m/s, 268° | - | - |
| 1778012710 | 14.44° C | 78% | 1013.2 hPa | - | 3.13 m/s, 245° | - | - |
| 1778012415 | 14.44° C | 78% | 1013 hPa | - | 1.79 m/s, 311° | - | - |
| 1778012110 | 14.44° C | 76% | 1013.1 hPa | - | 4.92 m/s, 240° | - | - |
| 1778011810 | 14.44° C | 76% | 1013 hPa | - | 2.24 m/s, 263° | - | - |
| 1778011510 | 15° C | 75% | 1012.9 hPa | - | 2.68 m/s, 280° | - | - |
| 1778011210 | 15° C | 74% | 1013 hPa | - | 4.47 m/s, 319° | - | - |
| 1778010911 | 15.56° C | 71% | 1012.9 hPa | - | 8.94 m/s, 239° | - | - |
| 1778010610 | 15.56° C | 71% | 1012.8 hPa | - | 4.92 m/s, 271° | - | - |
| 1778010310 | 15.56° C | 69% | 1012.9 hPa | - | 6.26 m/s, 242° | - | - |
| 1778010010 | 15.56° C | 67% | 1012.7 hPa | - | 4.02 m/s, 260° | - | - |
| 1778009712 | 15.56° C | 67% | 1012.4 hPa | - | 2.24 m/s, 314° | - | - |
| 1778009409 | 15.56° C | 66% | 1012.7 hPa | - | 1.79 m/s, 347° | - | - |
| 1778009109 | 16.11° C | 66% | 1012.6 hPa | - | 2.24 m/s, 198° | - | - |
* Rain since midnight (hover to see other rain measurements)
** Current wind speed in m/s (hover to see current wind gust speed)